Regional Weather Roundup
Issued by NWS Sterling, VA

Home | Current Version | Previous Version | Text Only | Print | Product List | Glossary Off
Versions: 1 2 3 4 5 6 7 8 9 10 11 12 13 14 15 16 17 18 19 20 21 22 23 24 25 26 27 28

000
ASUS41 KLWX 282110
RWRLWX

REGIONAL WEATHER ROUNDUP
NATIONAL WEATHER SERVICE BALTIMORE MD/WASHINGTON DC
500 PM EDT FRI APR 28 2017

Note: "FAIR" indicates few or no clouds below 12,000 feet
with no significant weather and/or obstructions to visibility.
 TC=TEMPERATURE CELSIUS

 * =Non NWS site. Station does not report precipitation (e.g. rain,
    snow, etc.), thunder, or fog.

DCZ001-MDZ009-015-VAZ040>042-051-053>054-282200-
WASHINGTON METRO

CITY           SKY/WX    TMP DP  RH WIND       PRES   REMARKS
WASHINGTON NAT MOSUNNY   83  61  47 S9        30.00F
DULLES         MOSUNNY   83  58  42 S10       30.00S
ANDREWS AFB    MOSUNNY   83  57  40 SW8       30.01R
FT BELVOIR     SUNNY     83  59  43 S7        30.00S
QUANTICO       SUNNY     79  69  71 S9        30.00F
COLLEGE PARK*  SUNNY     84  55  37 SW6       30.00S
LEESBURG*      SUNNY     86  61  42 S8        30.01S
MANASSAS*        N/A     84  62  47 S9        30.00F

$$

MDZ006>007-011-014-282200-
BALTIMORE METRO

CITY           SKY/WX    TMP DP  RH WIND       PRES   REMARKS
BWI AIRPORT    MOSUNNY   83  60  45 SE7       30.00S
MD SCIENCE CTR   N/A     82  58  43 MISG      30.01S
MARTIN STATE   MOSUNNY   81  63  54 SE10      30.03F
ANNAPOLIS      SUNNY     80  61  52 SE10      30.02S
FORT MEADE*    SUNNY     81  59  47 S10       30.03S

$$

MDZ012-015-019>023-282200-
MARYLAND EASTERN SHORE

CITY           SKY/WX    TMP DP  RH WIND       PRES   REMARKS
OCEAN CITY     MOSUNNY   69  64  84 S9        30.05S
SALISBURY      SUNNY     83  60  45 SW10      30.03R
BAY BRIDGE AP* SUNNY     82  59  44 S9        30.02S
CAMBRIDGE*     SUNNY     82  59  44 S7        30.02F
EASTON*        MOSUNNY   84  55  37 W6        30.05F

$$

MDZ017>025-282200-
SOUTHERN MARYLAND

CITY           SKY/WX    TMP DP  RH WIND       PRES   REMARKS
PATUXENT RIVER PTSUNNY   77  64  64 SE12      30.02F
ST INIGOES     SUNNY     79  63  57 E8        30.02F
LEONARDTOWN*   SUNNY     81  59  47 SE5       30.04S

$$

MDZ003>005-282200-
NORTH CENTRAL MARYLAND

CITY           SKY/WX    TMP DP  RH WIND       PRES   REMARKS
FREDERICK*     SUNNY     86  63  45 SW6       30.03S
HAGERSTOWN APT SUNNY     82  50  32 S6        30.00F
WESTMINSTER*   SUNNY     84  55  37 W8        30.03S

$$

MDZ501>502-282200-
WESTERN MARYLAND

CITY           SKY/WX    TMP DP  RH WIND       PRES   REMARKS
OAKLAND*       MOSUNNY   72  41  33 CALM      30.07S
CUMBERLAND*    CLOUDY    84  50  30 SE5       30.01F

$$

VAZ025>031-282200-
SHENANDOAH VALLEY

CITY           SKY/WX    TMP DP  RH WIND       PRES   REMARKS
WINCHESTER*    MOSUNNY   81  57  44 SE7       29.99F
FRONT ROYAL*   SUNNY     82  59  44 SE8G17    29.97F
LURAY*         SUNNY     84  54  34 SW9       29.99F
NEW MARKET*    SUNNY     84  55  35 S9        29.97F
STAUNTON*      SUNNY     80  59  47 S8        30.03F
WAYNESBORO*    PTSUNNY   79  60  50 S10       30.03S

$$

WVZ021-048>050-054>055-282200-
EASTERN WEST VIRGINIA PANHANDLE

CITY           SKY/WX    TMP DP  RH WIND       PRES   REMARKS
MARTINSBURG    SUNNY     82  57  42 E7        29.98F
PETERSBURG*    MOSUNNY   85  59  41 E10       29.96F

$$

VAZ036>039-050-282200-
CENTRAL FOOTHILLS

CITY           SKY/WX    TMP DP  RH WIND       PRES   REMARKS
CHARLOTTESVILL MOSUNNY   85  59  41 S15       30.00S
CULPEPER*      SUNNY     85  61  44 SW9       30.01R
ORANGE*        MOSUNNY   82  59  44 SW9G16    30.00S
GORDONSVILLE*  MOSUNNY   84  61  45 S9G18     30.00S
WARRENTON*     SUNNY     87  53  32 S8        30.00S

$$

VAZ055>057-282200-
NORTH AND CENTRAL PIEDMONT

CITY           SKY/WX    TMP DP  RH WIND       PRES   REMARKS
FREDERICKSBRG* SUNNY     85  63  47 SE7       29.99S
STAFFORD*      MOSUNNY   83  61  45 SE8       30.03F

$$

NCZ024-NYZ072-PAZ021-071-VAZ022-071-282200-
OTHER REGIONAL OBSERVATIONS

CITY           SKY/WX    TMP DP  RH WIND       PRES   REMARKS
NEW YORK CITY  SUNNY     81  55  40 VRB6      30.00S
PHILADELPHIA   PTSUNNY   83  52  34 W8        30.00F
PITTSBURGH     CLOUDY    72  45  37 NW3       30.02S
ROANOKE        MOSUNNY   82  61  48 SE17      30.02F
RICHMOND       MOSUNNY   85  63  47 S12       30.01F
RALEIGH        MOSUNNY   87  67  51 SW13      30.04F HX  90

$$

ANZ530>537-282200-
MARINE OBSERVATIONS

STATION/POSITION TIME  TEMP    WIND        PRES
                       AIR SEA DIR/SP/G
                 (UTC) (F)     (DEG/KT/KT) (MB)
THOMAS PT LIGHT  2100   72 59  170/ 11/ 11   N/A
BALT KEY BRIDGE  2048   78     140/ 12/ 14 1015.9F
COVE POINT       2048   71     180/ 11/ 12 1017.4F
LEWISETTA        2048   70 66  100/ 11/ 12 1016.3F
SOLOMONS ISLAND  2048   72 61  120/  9/ 10   N/A
PINEY POINT      2048          150/ 11/ 11   N/A

$$





USA.gov is the U.S. government's official web portal to all federal, state and local government web resources and services.